{"data":{"norad_id":64495,"intl_designator":"2025-133Z","name":"STARLINK-34364","alt_names":[],"object_type":"PAYLOAD","status":"ACTIVE","operator":null,"country":"US","launch_date":"2025-06-23","launch_site_code":"AFETR","launch_vehicle":null,"mission":null,"orbit_class":"UNKNOWN","rcs_meters":null,"size_class":null,"mass_kg":null,"dimensions":null,"purposes":["comms"],"wikipedia_slug":null,"has_3d_model":false,"image_url":null,"decayed_at":null,"tle_current":{"epoch":"2026-05-25T04:41:26.774592Z","epoch_age_seconds":61280,"freshness":"FRESH","line1":"1 64495U 25133Z   26145.19544878  .00024967  00000+0  74747-3 0  9995","line2":"2 64495  53.1587 118.4398 0001372  83.4823 276.6335 15.34406085 52942","mean_motion":15.34406085,"eccentricity":0.0001372,"inclination_deg":53.1587,"raan_deg":118.4398,"arg_perigee_deg":83.4823,"mean_anomaly_deg":276.6335,"bstar":0.00074747,"rev_number":5294,"period_min":93.847385908926,"perigee_km":461.74659356494,"apogee_km":463.6237151641,"semimajor_km":6840.8221543645,"source":"CELESTRAK","updated_at":"2026-05-25T13:38:20.462347Z"}}}